Regional Weather Roundup
Issued by NWS

Home | Current Version | Previous Version | Graphics & Text | Print | Product List | Glossary On
Versions: 1 2 3 4 5 6 7 8 9 10 11 12 13 14 15 16 17 18 19 20 21 22 23 24 25 26 27 28 29 30 31 32 33 34 35 36 37 38 39 40 41 42 43 44 45 46 47 48 49 50
000
ASUS43 KBIS 300010
RWRND

NORTH DAKOTA REGIONAL WEATHER ROUNDUP
NATIONAL WEATHER SERVICE BISMARCK ND
700 PM CDT MON JUN 29 2015

NOTE: "FAIR" INDICATES FEW OR NO CLOUDS BELOW 12,000 FEET WITH NO
SIGNIFICANT WEATHER AND/OR OBSTRUCTIONS TO VISIBILITY.


NDZ001>003-009>011-017-300100-
NORTHWEST NORTH DAKOTA

CITY           SKY/WX    TMP DP  RH WIND       PRES   REMARKS
WILLISTON      MOSUNNY   92  58  31 NE18      29.92R HX  91
6HR MIN TEMP:  91; 6HR MAX TEMP:  99;

MINOT          SUNNY     86  56  35 NW8       29.89S
MINOT AFB      SUNNY     90  56  31 N6        29.87F
$$

NDZ018>021-031>035-040>046-300100-
SOUTHWEST NORTH DAKOTA

CITY           SKY/WX    TMP DP  RH WIND       PRES   REMARKS
BISMARCK       SUNNY     90  57  32 W7        29.90F
6HR MIN TEMP:  87; 6HR MAX TEMP:  92;

DICKINSON      SUNNY     90  61  37 W7        29.90F HX  90
GARRISON         N/A     86  57  37 SE6       29.90F
6HR MIN TEMP:  86; 6HR MAX TEMP:  90;

HETTINGER ARPT SUNNY     87  65  47 SW5       29.96F
$$

NDZ004>008-012>016-024-026-027-054-300100-
NORTHEAST NORTH DAKOTA

CITY           SKY/WX    TMP DP  RH WIND       PRES   REMARKS
GRAND FORKS    CLOUDY    73  63  70 NW10      29.88R
GRND FRKS AFB  SUNNY     73  63  71 N10       29.89S
DEVILS LAKE    MOSUNNY   75  61  60 NE6       29.92F
$$

NDZ022-023-025-028>030-036>039-047>053-300100-
SOUTHEAST NORTH DAKOTA

CITY           SKY/WX    TMP DP  RH WIND       PRES   REMARKS
FARGO          SUNNY     75  64  68 NW13      29.86S
6HR MIN TEMP:  75; 6HR MAX TEMP:  78;

JAMESTOWN      PTSUNNY   78  65  63 NE6       29.91S
$$



USA.gov is the U.S. government's official web portal to all federal, state and local government web resources and services.